#timestamp,LO_Frequency,Hit,StdDev 
1575590415.0,286046999.3,N
1575590415.9,286046999.3,N
1575590435.8,286046999.1,N
1575590455.6,286046999.4,N
1575590475.4,286047000.4,N
1575590495.3,286046999.4,N
1575590515.1,286046997.5,N
1575590535.8,286046996.9,N
1575590555.7,286046995.4,N
1575590575.5,286046996.1,N
1575590595.4,286046995.4,N
1575590615.2,286046994.9,N
1575590635.0,286046998.4,N
1575590635.9,286046998.4,N
1575590655.8,286047000.7,N
1575590675.6,286046998.2,N
1575590695.4,286046996.9,N
1575590715.3,286046996.9,N
1575590735.1,286046996.5,N
1575590755.9,286046998.5,N
1575590775.7,286046997.5,N
1575590795.5,286046995.9,N
1575590815.4,286046993.5,Y
1575590835.2,286046993.5,P
1575590855.1,286046996.4,N
1575590856.0,286046996.4,N
1575590875.8,286046995.1,Y
1575590895.6,286046998.7,P
1575590915.5,286046998.9,N
1575590935.3,286046997.2,N
1575590955.1,286046996.6,N
1575590975.9,286046999.3,N
1575590995.7,286046996.9,N
1575591015.6,286046998.5,N
1575591035.4,286047002.1,N
1575591055.2,286047001.1,N
1575591075.1,286047000.7,N
1575591076.0,286047000.7,N
1575591095.8,286047000.7,N
1575591115.7,286047002.3,N
1575591135.5,286047002.6,N
1575591155.3,286047001.4,N
1575591175.2,286047001.5,N
1575591195.0,286047002.2,N
1575591195.9,286047002.2,N
1575591215.8,286047002.2,N
1575591235.6,286047002.5,N
1575591255.4,286047001.7,N
1575591275.3,286047003.0,N
1575591295.1,286047003.1,N
1575591315.8,286047006.0,N
1575591335.7,286047001.3,N
1575591355.5,286047002.7,N
1575591375.4,286047002.7,N
1575591395.2,286046999.6,N
1575591415.0,286046999.2,N
1575591415.9,286046999.2,N
1575591435.8,286046999.8,N
1575591455.6,286047001.6,N
1575591475.4,286047000.0,N
1575591495.3,286046998.5,N
1575591515.1,286046996.6,N
1575591535.9,286046998.4,N
1575591555.7,286046998.8,N
1575591575.5,286046996.7,N
1575591595.4,286046994.9,N
1575591615.2,286046993.4,N
1575591635.0,286046997.3,N
1575591635.9,286046997.3,N
1575591655.8,286046997.8,N
1575591675.6,286046995.3,N
1575591695.5,286046999.5,N
1575591715.3,286046998.7,N
1575591735.1,286046996.7,N
1575591755.9,286046997.8,N
1575591775.7,286046995.0,N
1575591795.6,286046997.1,N
1575591815.4,286047001.1,N
1575591835.2,286046998.1,N
1575591855.1,286046999.9,N
1575591856.0,286046999.9,N
1575591875.8,286047002.2,N
1575591895.6,286047000.0,N
1575591915.5,286047000.6,N
1575591935.3,286047000.9,N
1575591955.2,286046998.5,N
1575591975.9,286046998.5,N
1575591995.7,286046998.9,N
1575592015.6,286046995.2,N
1575592035.4,286046995.8,N
1575592055.2,286046997.0,N
1575592075.1,286046997.3,N
1575592076.0,286046997.3,N
1575592095.8,286046997.1,N
1575592115.7,286046998.4,N
1575592135.5,286046999.4,N
1575592155.3,286046996.5,N
1575592175.2,286046997.3,N
1575592195.0,286046998.8,N
1575592195.9,286046998.8,N
1575592215.8,286047000.8,N
1575592235.6,286047000.7,N
1575592255.4,286046999.0,N
1575592275.3,286046999.4,N
1575592295.1,286046996.5,N
1575592315.8,286046997.1,N
1575592335.7,286046997.1,N
1575592355.5,286046995.4,N
1575592375.4,286046997.3,N
1575592395.2,286046997.0,N
1575592415.0,286046996.7,N
1575592415.9,286046996.7,N
1575592435.8,286047000.6,N
1575592455.6,286047000.3,N
1575592475.4,286047002.6,N
1575592495.3,286047000.8,N
1575592515.1,286047002.8,N
1575592535.9,286047000.8,N
1575592555.7,286047001.7,N
1575592575.5,286047003.4,N
1575592595.4,286047003.2,N
1575592615.2,286046999.8,N
1575592635.0,286047000.5,N
1575592636.0,286047000.5,N
1575592655.8,286046998.4,N
1575592675.6,286046996.8,N
1575592695.5,286047000.9,N
1575592715.3,286046996.7,N
1575592735.1,286046998.7,N
1575592755.9,286046998.3,N
1575592775.7,286046999.0,N
1575592795.6,286046998.6,N
1575592815.4,286046996.5,N
1575592835.2,286046997.0,N
1575592855.1,286046999.3,N
1575592856.0,286046999.3,N
1575592875.8,286046998.7,N
1575592895.6,286046999.0,N
1575592915.5,286047001.7,N
1575592935.3,286047002.9,N
1575592955.2,286047007.6,Y
1575592975.9,286047006.9,P
1575592995.7,286047004.8,N
1575593015.6,286047003.1,N
1575593035.4,286047003.6,N
1575593055.3,286047003.5,N
1575593075.1,286047001.7,N
1575593076.0,286047001.7,N
1575593095.8,286047004.2,N
1575593115.7,286047004.7,N
1575593135.5,286047004.8,N
1575593155.3,286047006.9,Y
1575593175.2,286047001.9,P
1575593195.0,286047001.9,N
1575593195.9,286047001.9,N
1575593215.8,286047000.7,N
1575593235.6,286046998.8,N
1575593255.4,286046998.6,N
1575593275.3,286047001.2,N
1575593295.1,286047000.2,N
1575593315.9,286047000.7,N
1575593335.7,286046998.8,N
1575593355.5,286047000.3,N
1575593375.4,286047003.2,N
1575593395.2,286047001.6,N
1575593415.0,286047002.5,N
1575593415.9,286047002.5,N
1575593435.8,286046998.5,N
1575593455.6,286046999.0,N
1575593475.5,286046999.6,N
1575593495.3,286046998.2,N
1575593515.1,286046999.7,N
1575593535.9,286046998.1,N
1575593555.7,286046998.5,N
1575593575.5,286046998.6,N
1575593595.4,286046999.3,N
1575593615.2,286046997.2,N
1575593635.1,286046995.5,N
1575593636.0,286046995.5,N
1575593655.8,286046997.1,N
1575593675.6,286047000.9,N
1575593695.5,286047000.1,N
1575593715.3,286047000.2,N
1575593735.1,286046999.7,N
1575593755.9,286047001.2,N
1575593775.7,286046999.5,N
1575593795.6,286046997.5,N
1575593815.4,286046997.5,N
1575593835.2,286046997.5,N
1575593855.1,286046995.4,N
1575593856.0,286046995.4,N
1575593875.8,286046999.3,N
1575593895.7,286046998.8,N
1575593915.5,286046999.7,N
1575593935.3,286047002.4,N
1575593955.2,286047001.0,N
1575593975.0,286046998.5,N
1575593975.9,286046998.5,N
1575593995.8,286046996.8,N
